Powrót do katalogu

DELTA 1 DEB

AktywnySSO
NORAD 10865·DEBRIS·🇺🇸 United States

Wystrzelony Jul 29, 1976 z Vandenberg Space Force Base

Loading…

Następne Przeloty (najbliższe 24 godziny)

TLE

ŚwieżeSource: Space-Track

Epoka: Sep 14, 2026, 08:08 UTC

1 10865U 76077CT  26257.33919600 -.00000031  00000-0  12209-3 0  9992
2 10865 102.4030 201.7845 0111873 355.3266 159.2059 12.20361681233751

Śledź DELTA 1 DEB w czasie rzeczywistym z AllMySat

Download on the App Store